Snowfall_Accumulation
0.5 0.3 0.4 0.4 0.5 0.6 0.7 0.8 1.5 1.7 0.8 0.4 0.3 0.3 0.4 0.5 0.1 0.3 0.3 0.2 0.1 0.1 0.1 0.0 0.0 0.0 0.1 0.0 0.0 0.0 0.0 0.0 0.0 0.0 0.0 0.0 0.0 0.0
0.6 0.4 0.3 0.3 0.5 0.7 0.7 0.8 1.0 1.6 1.5 0.4 0.5 0.5 0.3 0.4 0.3 0.4 0.3 0.3 0.2 0.1 0.1 0.1 0.1 0.1 0.1 0.1 0.1 0.1 0.1 0.0 0.1 0.0 0.0 0.0 0.0 0.0
1.0 0.7 0.5 0.4 0.5 0.6 0.8 0.9 0.9 1.3 1.7 0.5 0.3 0.4 0.5 0.4 0.6 0.3 0.2 0.3 0.2 0.2 0.2 0.2 0.3 0.3 0.2 0.2 0.2 0.1 0.1 0.1 0.1 0.1 0.1 0.1 0.0 0.0
1.2 0.8 0.7 0.6 0.6 0.7 1.1 1.2 0.9 1.1 1.7 1.7 0.7 0.6 0.6 0.5 0.4 0.6 0.3 0.2 0.3 0.2 0.2 0.2 0.3 0.3 0.3 0.4 0.4 0.3 0.2 0.1 0.1 0.1 0.1 0.1 0.1 0.0
1.6 1.6 1.0 0.9 1.1 1.0 1.2 1.4 1.3 1.2 1.8 2.4 1.4 1.1 0.9 0.6 0.5 0.7 0.3 0.3 0.2 0.2 0.2 0.1 0.2 0.3 0.4 0.5 0.5 0.5 0.4 0.4 0.3 0.2 0.2 0.1 0.2 0.2
2.4 2.6 2.7 2.4 2.3 2.0 1.9 1.9 1.9 2.0 2.0 2.5 2.6 2.3 1.6 1.0 1.1 1.5 1.2 1.0 0.5 0.3 0.3 0.1 0.2 0.3 0.3 0.2 0.3 0.4 0.4 0.5 0.5 0.5 0.5 0.5 0.4 0.4
2.7 2.9 2.8 2.5 2.2 2.2 2.6 3.1 2.8 3.2 3.6 4.1 3.6 3.1 2.5 1.9 1.6 1.4 2.0 1.4 1.0 0.4 0.5 0.3 0.3 0.3 0.1 0.1 0.1 0.1 0.3 0.8 0.7 0.8 0.6 0.6 0.6 0.7
2.8 2.7 2.5 2.5 2.1 2.2 2.4 2.9 3.9 5.4 5.7 5.7 4.8 3.7 2.7 2.0 1.9 2.3 3.9 4.3 4.3 0.9 1.1 0.7 0.4 0.3 0.2 0.2 0.2 0.3 0.7 1.1 1.2 0.9 0.8 0.8 0.7 0.8
2.6 2.4 2.1 1.8 2.1 1.8 1.9 2.6 3.3 3.8 4.6 5.0 4.7 3.3 3.1 2.9 3.9 5.4 5.1 5.5 4.5 2.4 1.6 1.6 0.8 0.7 0.3 0.3 0.3 0.4 0.6 0.8 1.1 1.0 1.0 0.9 0.8 0.9
2.3 2.1 2.3 1.9 1.7 2.4 3.2 3.8 3.0 2.5 2.4 2.7 2.8 3.1 3.0 3.3 4.2 6.1 5.6 5.1 2.7 1.8 1.6 4.0 1.7 1.3 0.5 0.4 0.3 0.5 0.8 0.9 1.2 1.3 1.3 1.3 1.2 1.3
2.4 1.9 2.3 1.9 2.0 3.8 5.2 4.9 3.2 2.2 1.7 2.2 2.7 2.8 2.5 2.7 3.1 5.6 7.9 8.5 6.5 3.2 2.2 3.7 2.7 2.2 1.1 0.6 0.5 0.8 1.1 1.2 1.3 1.3 1.4 1.3 1.4 1.5
2.2 1.8 1.9 2.2 3.1 4.9 5.5 5.4 4.3 3.1 3.1 2.5 2.0 1.6 1.7 1.9 2.2 5.3 10.6 14.6 11.0 7.4 2.7 4.4 4.6 4.9 5.4 1.5 0.9 1.0 1.0 1.2 1.3 1.3 1.5 1.6 1.7 1.8
3.3 2.6 2.2 3.1 4.1 5.0 4.4 4.3 4.7 4.5 3.7 3.1 2.5 1.9 1.8 2.0 2.3 3.1 5.7 13.0 16.1 11.2 4.5 9.1 10.4 7.1 9.4 5.1 1.9 1.6 2.0 2.6 2.8 2.5 2.0 1.7 1.8 2.3
4.7 3.7 4.0 4.8 4.7 3.9 3.5 3.6 4.2 3.9 3.6 3.9 3.8 3.6 3.2 3.0 3.0 3.3 3.9 5.6 8.9 10.3 7.1 11.4 17.2 13.5 14.9 12.6 7.8 5.8 3.7 4.6 6.1 6.7 4.0 2.7 2.0 1.5
4.7 4.5 4.9 4.4 3.7 3.4 2.8 3.1 3.4 4.0 4.9 5.8 5.1 4.4 3.6 3.6 3.6 3.9 4.1 4.3 5.3 5.8 6.4 8.5 12.9 14.2 16.7 16.7 12.5 9.1 9.2 7.9 8.4 9.2 6.7 4.6 3.8 2.7
4.9 4.7 3.7 3.3 3.3 3.3 3.2 3.0 3.0 3.9 5.6 7.1 6.2 4.6 4.4 4.6 5.1 5.0 6.5 6.9 8.1 7.2 6.4 7.2 9.2 13.1 15.7 13.2 13.6 12.3 11.8 14.7 11.7 8.6 5.6 4.6 3.5 3.3
5.9 4.8 3.9 3.6 3.7 3.4 3.5 3.3 3.2 3.7 4.6 5.5 6.4 6.7 6.1 5.9 5.9 6.3 8.5 9.7 11.0 9.3 8.1 6.8 6.8 8.1 10.4 11.4 12.8 11.6 12.4 14.0 11.2 7.7 6.6 6.8 4.2 3.1
6.4 6.3 5.2 4.5 4.4 4.3 4.4 4.4 4.2 4.5 5.6 6.9 7.5 8.1 8.4 8.3 8.0 7.6 9.5 11.8 11.8 10.0 9.1 7.9 8.2 8.9 8.8 8.3 9.6 12.2 12.9 13.7 10.0 8.3 7.7 9.6 8.5 4.4
7.1 6.6 5.5 5.0 4.7 4.7 4.7 5.2 5.3 5.0 6.0 8.2 9.5 9.5 10.1 9.5 9.7 10.0 10.7 11.5 11.1 9.6 8.1 7.8 9.7 14.1 16.4 11.5 7.8 9.5 13.9 13.8 11.3 9.5 7.9 10.1 11.6 7.8
7.1 6.9 6.3 5.6 5.4 5.7 6.1 6.4 6.2 5.8 6.7 8.2 9.3 10.0 11.0 11.7 11.5 11.4 11.4 11.9 11.5 9.5 7.7 6.0 7.8 13.1 19.7 17.9 13.9 11.3 9.3 12.7 14.4 14.6 10.3 7.6 7.2 4.5
7.0 7.1 7.2 7.0 7.2 7.6 8.0 7.7 8.2 8.6 9.1 10.3 10.5 11.0 12.0 13.6 13.2 11.8 11.3 10.6 10.6 10.3 9.0 6.8 5.9 7.6 11.9 15.0 14.3 11.4 11.0 8.7 9.8 15.8 16.6 15.3 13.0 10.4
7.0 7.4 7.6 7.7 8.4 9.1 9.2 9.6 9.8 9.4 10.3 10.9 11.1 11.5 12.4 13.9 14.0 12.4 11.3 11.2 10.2 9.7 9.1 7.2 6.0 7.2 10.3 14.5 12.7 9.4 9.6 9.2 7.9 7.0 9.1 13.5 21.7 23.7
7.5 7.7 7.7 8.0 8.8 9.6 10.1 10.5 11.2 11.2 11.1 12.3 12.3 12.2 12.5 12.7 11.4 11.4 11.4 11.1 11.4 10.8 10.0 9.6 8.5 8.5 9.5 10.2 11.1 10.2 8.9 8.7 8.4 8.8 10.3 7.8 7.5 8.3